Home   Weather   Dornbirn   Past weeks

Flag for Austria Past Weather in Dornbirn, Vorarlberg, Austria — Yesterday and Last 2 Weeks

Now
26 °F

Chilly.


Feels Like: 26 °F
Forecast: 40 / 54 °F
Wind: No wind

Location: Bregenz

Current Time: Dec 9, 2016 at 8:45:25 am

Latest Report: Dec 9, 2016 at 8:00 am


Visibility: N/A

Pressure: 30.61 "Hg

Humidity: 96%

Dew Point: 25 °F

Location of DornbirnLocation

Past Weather in Dornbirn — Graph

°F

Dornbirn Temperature Yesterday

Maximum temperature yesterday: 36 °F (at 2:00 pm)
Minimum temperature yesterday: 27 °F (at 8:00 am)
Average temperature yesterday: 31 °F

High & Low Weather Summary for the Past Weeks

 TemperatureHumidityPressure
High50 °F (Nov 24, 3:00 pm)100% (Dec 6, 10:00 am)30.69 "Hg (Dec 6, 10:00 am)
Low24 °F (Nov 29, 7:00 am)50% (Dec 1, 1:00 pm)29.93 "Hg (Nov 25, 5:00 am)
Average35 °F84%30.33 "Hg
* Reported Nov 24 7:00 am — Dec 9 7:00 am, Dornbirn, Weather by CustomWeather, © 2016

Note: Actual official high and low records may vary slightly from our data, if they occured in-between our weather recording intervals... More about our weather records

Advertising

Dornbirn Weather History for the Previous 24 Hours

Scroll right to see more
 ConditionsComfort  
Time TempWeatherWind HumidityBarometerVisibility
7:00 am
Fri, Dec 9
27 °FFog.No wind100%30.62 "Hg0 mi
6:00 am28 °FChilly.No wind99%30.61 "HgN/A
5:00 am28 °FChilly.1 mph97%30.61 "HgN/A
4:00 am30 °FChilly.1 mph98%30.60 "HgN/A
3:00 am29 °FChilly.1 mph98%30.61 "HgN/A
2:00 am30 °FChilly.1 mph93%30.61 "HgN/A
1:00 am30 °FChilly.1 mph94%30.62 "HgN/A
12:00 am30 °FChilly.No wind87%30.61 "HgN/A
11:00 pm
Thu, Dec 8
31 °FChilly.1 mph90%30.60 "HgN/A
10:00 pm31 °FChilly.1 mph92%30.62 "HgN/A
9:00 pm31 °FChilly.1 mph89%30.61 "HgN/A
8:00 pm30 °FChilly.No wind94%30.62 "HgN/A
7:00 pm31 °FChilly.2 mph93%30.60 "HgN/A
5:00 pm32 °FChilly.1 mph93%30.61 "HgN/A
4:00 pm35 °FChilly.1 mph89%30.58 "HgN/A
3:00 pm35 °FChilly.1 mph85%30.59 "HgN/A
2:00 pm36 °FChilly.1 mph80%30.60 "HgN/A
1:00 pm35 °FChilly.1 mph84%30.62 "HgN/A
12:00 pm32 °FChilly.1 mph92%30.64 "HgN/A
11:00 am31 °FChilly.No wind95%30.68 "HgN/A
10:00 am29 °FFog.2 mph95%30.69 "Hg0 mi
9:00 am27 °FChilly.1 mph90%30.68 "HgN/A
8:00 am27 °FChilly.1 mph86%30.68 "HgN/A
Weather by CustomWeather, © 2016

See weather overviewHow to use our weather pages